Location: Newark
(39.6867°N, 100.6772°W)
Time: 02:50:51
(UTC+00:00)

ISS - Pass Details

Date: 20 September 2019
Orbit: 411 x 421 km, 51.6° (Epoch: 20 October)

Event Time Altitude Azimuth Distance (km) Brightness Sun altitude
Rises 02:14:17 0° 234° (SW) 2,331 0.6 -17.7°
Reaches altitude 10° 02:16:21 10° 236° (SW) 1,472 -0.5 -18.1°
Maximum altitude 02:19:39 78° 322° (NW) 423 -3.8 -18.7°
Enters shadow 02:20:25 50° 39° (NE) 532 -3.5 -18.9°
